Flag for Germany Weather past 2 weeks in Bitterfeld-Wolfen, Saxony-Anhalt, Germany

Now
63 °F

Drizzle. Broken clouds.


Feels Like: 63 °F
Forecast: 61 / 76 °F
Wind: 15 mph from Northeast

Location: Leipzig-Schkeuditz

Current Time: Jul 24, 2014 at 8:42:07 PM

Latest Report: Jul 24, 2014 at 7:50 PM


Visibility: N/A

Pressure: 29.98 "Hg

Humidity: 88%

Dew point: 59 °F

Location of Bitterfeld-WolfenLocation

Historic Weather in Bitterfeld-Wolfen — Graph

°F

Bitterfeld-Wolfen temperature yesterday

Maximum temperature yesterday: 84 °F (at 3:20 PM)
Minimum temperature yesterday: 63 °F (at 4:50 AM)
Average temperature yesterday: 74 °F

Past Weeks' High & Low Weather Summary

 TemperatureHumidityPressure
High93 °F (Jul 20, 3:50 PM)100% (Jul 11, 12:50 AM)30.18 "Hg (Jul 11, 12:50 AM)
Low52 °F (Jul 12, 3:50 AM)22% (Jul 19, 6:50 PM)29.71 "Hg (Jul 9, 7:20 PM)
Average70 °F67%29.95 "Hg
* Reported Jul 9 7:20 PM — Jul 24 7:20 PM, Bitterfeld-Wolfen, Weather by CustomWeather, © 2014

Note: Actual official high and low records may vary slightly from our data, if they occured in-between our weather recording intervals... More about our weather records

Advertising

Bitterfeld-Wolfen weather history for previous 24 hours

 ConditionsComfort  
Time TempWeatherWind HumidityBarometerVisibility
7:20 PM
Jul 24
66 °FBroken clouds.17 mph73%29.98 "HgN/A
6:50 PM70 °FBroken clouds.20 mph60%29.98 "HgN/A
6:20 PM72 °FPartly sunny.18 mph53%29.98 "HgN/A
5:50 PM72 °FPartly sunny.17 mph57%29.98 "HgN/A
5:20 PM72 °FBroken clouds.20 mph57%29.98 "HgN/A
4:50 PM73 °FBroken clouds.15 mph53%29.98 "HgN/A
4:20 PM70 °FPartly sunny.6 mph69%29.98 "HgN/A
3:50 PM70 °FBroken clouds.6 mph69%30.01 "HgN/A
3:20 PM68 °FSunny.5 mph83%30.01 "Hg10 mi
2:50 PM66 °FLight rain. Clear.5 mph83%30.01 "HgN/A
2:20 PM64 °FLight rain. Broken clouds.7 mph88%30.01 "HgN/A
1:50 PM64 °FLight rain. Partly sunny.9 mph83%30.04 "HgN/A
1:20 PM64 °FLight rain. Broken clouds.8 mph88%30.04 "HgN/A
12:50 PM66 °FLight rain. Partly sunny.12 mph78%30.01 "HgN/A
12:20 PM68 °FPartly sunny.15 mph64%30.01 "HgN/A
11:50 AM70 °FPartly sunny.13 mph60%30.01 "HgN/A
11:20 AM72 °FBroken clouds.12 mph57%30.01 "HgN/A
10:50 AM72 °FPassing clouds.9 mph57%30.01 "HgN/A
10:20 AM70 °FSunny.12 mph60%30.01 "Hg10 mi
9:50 AM70 °FSunny.9 mph64%30.01 "Hg10 mi
9:20 AM68 °FSunny.10 mph64%30.01 "Hg10 mi
8:50 AM66 °FSunny.9 mph68%30.01 "Hg10 mi
8:20 AM64 °FSunny.12 mph73%30.01 "Hg10 mi
7:50 AM63 °FSunny.7 mph77%30.01 "Hg10 mi
7:20 AM63 °FSunny.8 mph77%30.01 "Hg10 mi
6:50 AM61 °FSunny.8 mph83%30.01 "Hg10 mi
6:20 AM59 °FClear.8 mph88%30.01 "Hg10 mi
5:50 AM59 °FClear.7 mph88%30.01 "Hg10 mi
5:20 AM57 °FClear.5 mph94%30.01 "Hg10 mi
4:50 AM57 °FClear.7 mph94%30.01 "Hg10 mi
4:20 AM57 °FClear.7 mph94%29.98 "Hg10 mi
3:50 AM59 °FClear.7 mph88%30.01 "Hg10 mi
3:20 AM59 °FClear.7 mph88%30.01 "Hg10 mi
2:50 AM61 °FClear.7 mph83%30.01 "Hg10 mi
2:20 AM61 °FClear.7 mph83%30.01 "Hg10 mi
1:50 AM61 °FClear.8 mph88%30.01 "Hg10 mi
1:20 AM63 °FClear.9 mph77%30.01 "Hg10 mi
12:50 AM64 °FClear.7 mph73%30.01 "Hg10 mi
12:20 AM66 °FClear.7 mph73%30.01 "Hg10 mi
11:50 PM
Jul 23
66 °FClear.8 mph73%30.01 "Hg10 mi
11:20 PM68 °FClear.12 mph64%30.01 "Hg10 mi
10:50 PM68 °FClear.16 mph64%30.01 "Hg10 mi
10:20 PM70 °FPassing clouds.15 mph60%30.01 "HgN/A
9:50 PM72 °FPartly sunny.15 mph53%30.01 "HgN/A
9:20 PM75 °FScattered clouds.14 mph44%30.01 "HgN/A
8:50 PM77 °FScattered clouds.14 mph36%29.98 "HgN/A
8:20 PM79 °FSunny.12 mph34%29.98 "Hg10 mi
Weather by CustomWeather, © 2014

See weather overviewHow to use our weather pages